Other Public Products
Issued by NWS Grand Forks, ND

Home | Current Version | Previous Version | Text Only | Print | Product List | Glossary Off
Versions: 1 2 3 4 5 6 7 8 9 10 11 12 13 14 15 16 17 18 19 20 21 22 23 24 25 26 27 28 29 30 31 32 33 34 35 36 37 38 39 40 41 42 43 44 45 46 47 48 49 50

000
FPUS83 KFGF 262331
OPUFGF
PRAIRIE TO PINES WEATHER ROUNDUP
NATIONAL WEATHER SERVICE EASTERN NORTH DAKOTA/GRAND FORKS ND
600 PM CDT FRI MAY 26 2017

 **SATELLITE DATA USED TO AUGMENT SKY COVER AT AUTOMATED STATIONS**
 *****  WEATHER ACROSS EASTERN NORTH DAKOTA  *****

CITY           SKY/WX    TMP DP  RH WIND       PRES   REMARKS
GRAND FORKS    FAIR      71  46  40 W16G24    29.70R
GRAND FORKS AF FAIR      66  45  47 W15       29.72R
GRAND CITY NWS NOT AVBL
BUXTON           N/A     70  45  40 W9G22       N/A
DEVILS LAKE    PTSUNNY   64  41  42 W22G30    29.73R
FARGO          FAIR      69  43  38 W22       29.74R
WAHPETON ARPT  FAIR      68  39  34 NW17      29.76S
$$

 *****  WEATHER ACROSS CENTRAL AND WESTERN NORTH DAKOTA  *****

CITY           SKY/WX    TMP DP  RH WIND       PRES   REMARKS
JAMESTOWN      CLOUDY    63  43  48 NW17      29.77R
BISMARCK       CLOUDY    67  39  35 NW13G23   29.80R
MINOT          FAIR      68  36  30 NW17      29.73R
MINOT AFB      FAIR      66  36  33 W20G25    29.71S
GARRISON         N/A     65  34  31 NW20      29.76S
WILLISTON      PTSUNNY   67  33  28 NW13G23   29.77S
DICKINSON      PTSUNNY   64  30  27 NW18G28   29.80S
HETTINGER      FAIR      67  34  29 NW15      29.85F
$$

 *****  OTHER OBSERVATIONS NORTHEAST NORTH DAKOTA  *****

CITY           SKY/WX    TMP DP  RH WIND       PRES   REMARKS
WALHALLA       NOT AVBL
LANGDON        CLOUDY    63  45  51 W20G26    29.70R
CAVALIER       CLOUDY    64  46  52 W9        29.67R
GRAFTON        MOCLDY    66  46  48 W18       29.70S
CANDO          NOT AVBL
FORT TOTTEN      N/A     62  43  49 NW7       29.95S
ROLLA          FAIR      63  41  45 W15G21    29.71S
RUGBY          NOT AVBL
 ***** THE ABOVE OBSERVATIONS ARE NON NWS ARE NOT QUALITY
        CONTROLLED AND MAY MIS-REPORT RAIN FOR SNOW...
$$

 *****  OTHER OBSERVATIONS SOUTHEAST NORTH DAKOTA *****

CITY           SKY/WX    TMP DP  RH WIND       PRES   REMARKS
COOPERSTOWN    MOCLDY    66  41  39 W24       29.75S
VALLEY CITY    CLOUDY    64  45  48 W15       29.78R
OAKES          NOT AVBL
GWINNER        PTCLDY    66  43  42 MISG      29.79R
SHEYENNE NWR     N/A     69  44  39 W13       29.95S
BUFFALO          N/A     66  37  33 S12         N/A
WYNDMERE         N/A     70  43  37 W13         N/A
 ***** THE ABOVE OBSERVATIONS ARE NON NWS ARE NOT QUALITY
       CONTROLLED AND MAY MIS-REPORT RAIN FOR SNOW...
$$

  *****  WEATHER ACROSS NORTHERN MINNESOTA  *****

CITY           SKY/WX    TMP DP  RH WIND       PRES   REMARKS
FLAG ISLAND    FAIR      66  45  45 SW16G25   29.62S
WARROAD        FAIR      66  48  52 W17G25    29.66R
ROSEAU         FAIR      68  46  45 W15G21    29.66S
HALLOCK        CLOUDY    66  45  45 W14       29.67R
THF RVR FALLS  PTSUNNY   67  42  40 W18G26    29.71R
HALSTAD          N/A     68  43  40 NW10        N/A
FOSSTON        FAIR      70  43  37 W17       29.73R
BAUDETTE       CLOUDY    70  45  40 W15G21    29.64R HAZE
WASKISH        FAIR      66  52  59 W13G18    29.68R
CROOKSTON      FAIR      66  43  42 W18       29.72R
$$
  *****  WEATHER ACROSS CENTRAL AND WEST MINNESOTA  *****

CITY           SKY/WX    TMP DP  RH WIND       PRES   REMARKS
BEMIDJI        FAIR      69  44  39 SW14G21   29.70R
PARK RAPIDS    LGT RAIN  72  43  35 W15G22    29.71R
WADENA         FAIR      70  45  40 W12G18    29.74R
DETROIT LAKES  FAIR      68  41  37 W15       29.76R
MOORHEAD       FAIR      70  39  32 W18G25    29.75S
FERGUS FALLS   FAIR      68  45  42 NW14G23   29.74S
ELBOW LAKE     FAIR      69  44  40 W16G23    29.77R
MORRIS MN      FAIR      72  45  37 NW17      29.77R
STAPLES        FAIR      72  41  33 W14       29.73S
WHEATON        FAIR      70  39  32 W14G21    29.78S
$$
  *****  WEATHER ELSEWHERE ACROSS MINNESOTA  *****

CITY           SKY/WX    TMP DP  RH WIND       PRES   REMARKS
DULUTH         PTSUNNY   67  53  61 SE6       29.71R
INTRNTL FALLS  FAIR      74  40  29 W13G20    29.64R
ELY            FAIR      63  55  77 SE7       29.70S THUNDER
CLOQUET        FAIR      64  54  68 E6        29.69F
BRAINERD       FAIR      72  44  36 W16       29.72R
HIBBING        FAIR      73  45  36 SW9G18    29.66R
ALEXANDRIA     FAIR      71  44  37 W14       29.77R
SAINT CLOUD    FAIR      74  49  41 W17       29.73R
MINNEAPOLIS    FAIR      79  51  37 W16G22    29.71F
$$

  *****  WEATHER ACROSS SOUTH DAKOTA  *****

CITY           SKY/WX    TMP DP  RH WIND       PRES   REMARKS
SIOUX FALLS    FAIR      72  44  36 NW15      29.82S
BROOKINGS      FAIR      70  42  36 W14       29.81S
WATERTOWN      FAIR      69  40  34 W12       29.80R
HURON          FAIR      73  41  31 NW16G25   29.80S
SISSETON         N/A     71  44  37 NW18      29.77R
ABERDEEN       FAIR      70  38  31 NW15G23   29.80S
MITCHELL       FAIR      75  36  24 NW12      29.82S
PIERRE         FAIR      70  36  28 NW9       29.82S
MOBRIDGE       FAIR      72  38  29 NW15      29.78S
RAPID CITY     CLOUDY    61  39  44 S7        29.91R
$$

  *****  SOME WEATHER IN NEARBY STATES *****

CITY           SKY/WX    TMP DP  RH WIND       PRES   REMARKS
GLASGOW MT     PTSUNNY   63  38  39 W18G28    29.83R
GREAT FALLS MT PTSUNNY   61  34  36 NE7       29.90F
CHEYENNE WY    PTSUNNY   60  47  61 SE9       29.87F
SCOTTSBLUFF NE LGT RAIN  61  49  64 NE16      29.88F
OMAHA NE       FAIR      81  49  32 NW8       29.80S
DES MOINES IA  FAIR      83  58  42 N6        29.76F
DAVENPORT IA   CLOUDY    66  61  84 NE9       29.79S
CHICAGO IL     LGT RAIN  56  53  90 NE10      29.81R FOG
EAU CLAIRE WI  FAIR      73  55  53 SW12      29.75F
LA CROSSE WI   FAIR      73  57  57 S8        29.79R
$$

  *****  SOME NATIONAL WEATHER *****

CITY           SKY/WX    TMP DP  RH WIND       PRES   REMARKS
LA GUARDIA NY  FAIR      75  51  43 NW18G26   29.65R
RALEIGH NC     FAIR      78  57  48 SW7       29.90S
ATLANTA GA     FAIR      82  58  43 W13       29.98F
NEW ORLEANS LA FAIR      83  65  54 S10       29.98F
OKLAHOMA CITY  FAIR      87  65  47 VRB3      29.75S
ALBUQUERQUE NM PTSUNNY   82   9   6 SW7       29.90F
SALT LAKE CITY FAIR      68  32  26 N15       29.91S
LOS ANGELES CA FAIR      69  52  54 W15       29.98F
BOISE ID       FAIR      71  39  31 NW16      29.90F
SEATTLE WA     FAIR      79  47  32 N8        29.95F
$$

*** WEATHER ACROSS MANITOBA...SASKATCHEWAN AND ONTARIO ***
                ***ONTARIO***

CITY           SKY/WX    TMP DP  RH WIND       PRES   REMARKS
GERALDTON      CLOUDY    70  48  46 SW14      29.77R
THUNDER BAY    PTSUNNY   54  48  82 E10       29.76F
SIOUX LOOKOUT  PTSUNNY   55  54  94 SE7       29.65S
TORONTO        LGT RAIN  61  55  82 NW13      29.81R
BIG TROUT LK     N/A     57  46  67 S7        29.65R
PICKLE LAKE    CLOUDY    63  52  67 S14       29.69S
DRYDEN         CLOUDY    61  55  82 S6        29.64R
KENORA         PTSUNNY   68  45  42 W8G20     29.62S
$$
                *** MANITOBA***

CITY           SKY/WX    TMP DP  RH WIND       PRES   REMARKS
BRANDON        PTSUNNY   61  45  55 W17       29.65R
DAUPHIN        PTSUNNY   63  48  59 W17G24    29.58R
ISLAND LAKE    NOT AVBL
PILOT MOUND      N/A     61  43  51 W13G20      N/A
THE PAS        CLOUDY    54  50  87 NW9       29.48R
THOMPSON       PTSUNNY   57  55  94 N5        29.46R
WINNIPEG       PTSUNNY   66  48  52 NW13G20   29.62S
LYNN LAKE      LGT RAIN  52  50  93 NE10      29.55S
CHURCHILL      CLOUDY    36  34  93 NE12G20   29.70R
GILLAM         PTSUNNY   64  50  59 SE10G17   29.52S
$$
                ***SASKATCHEWAN***

CITY           SKY/WX    TMP DP  RH WIND       PRES   REMARKS
ESTEVAN        PTSUNNY   64  36  34 W24G35    29.71R
KINDERSLEY     PTSUNNY   57  43  58 NW14      29.77R
LLOYDMINSTER   MOSUNNY   66  39  37 N16G23    29.69F
PRINCE ALBERT  PTSUNNY   61  37  41 N9G17     29.62S
REGINA         MOSUNNY   66  34  30 NW21G33   29.68S
YORKTON          N/A     59  45  58 NW21      29.62S



USA.gov is the U.S. government's official web portal to all federal, state and local government web resources and services.